User: anonymous   Login
Location: ???????
(55.4362°N, 38.1183°E)
Time: 17:20:22
(UTC+00:00)
Language:

Cosmos 468 Rocket - Orbit

View from above orbital plane
View from above orbital plane
View from above satellite
View from above satellite

Ground track
Ground track

The orbit data is extracted from the following two-line orbital elements,

1 05707U 71114B   21263.84768366  .00000064  00000-0  29155-4 0  9991
2 05707  74.0255  93.8910 0024183 142.4059 217.8792 14.38957794606462
Epoch (UTC): 20 September 2021 20:20:39
Eccentricity: 0.0024183
inclination: 74.0255°
perigee height: 744 km
apogee height: 779 km
right ascension of ascending node: 93.8910°
argument of perigee: 142.4059°
revolutions per day: 14.38957794
mean anomaly at epoch: 217.8792°
orbit number at epoch: 60646

The dashed part of the orbit path shows where the satellite is in the earth's shadow,  

DLR